Regional Weather Roundup
Issued by NWS Kansas City/Pleasant Hill, MO

Home | Current Version | Previous Version | Text Only | Print | Product List | Glossary On
Versions: 1 2 3 4 5 6 7 8 9 10 11 12 13 14 15 16 17 18 19 20 21 22 23 24 25 26 27 28 29 30 31 32 33 34 35 36 37 38 39 40 41 42 43 44 45 46 47 48 49 50
000
ASUS43 KEAX 302310
RWREAX

WEATHER ROUNDUP FOR EASTERN KANSAS AND NORTHWEST MISSOURI
NATIONAL WEATHER SERVICE KANSAS CITY/PLEASANT HILL MO
600 PM CDT SUN AUG 30 2015

KSZ040-057-103>105-MOZ028-029-037-043-310000-
...KANSAS CITY METROPOLITAN AREA...

CITY           SKY/WX    TMP DP  RH WIND       PRES   REMARKS
K.C. INTL      MOSUNNY   83  63  50 E10       29.97F
K.C. DOWNTOWN  MOSUNNY   85  69  58 SE7       29.95F
LEES SUMMIT    SUNNY     83  69  62 SE6       29.98F
OLATHE - IXD   SUNNY     82  69  64 SE8       29.97F
OLATHE - OJC   MOSUNNY   81  69  67 SE7       29.96F
LAWRENCE       PTSUNNY   84  69  60 SE8       29.96F

$$

MOZ001>008-011>017-020>025-030>033-038>040-044>046-053-054-310000-
...NORTHERN AND CENTRAL MISSOURI...

CITY           SKY/WX    TMP DP  RH WIND       PRES   REMARKS
ST. JOSEPH     SUNNY     82  69  64 SE7       29.97F
MOSBY          PTCLDY    82  68  61 E5        29.97S
WARRENSBURG    SUNNY     82  70  65 NE7       29.96F
WHITEMAN AFB   MOSUNNY   85  72  65 E6        29.96S HX  90
CLINTON        SUNNY     86  73  66 SE3       29.96F HX  93
SEDALIA        CLOUDY    85  70  60 SE5       29.98F
WARSAW         NOT AVBL
CHILLICOTHE      N/A     84  71  65 E3        29.99F
KIRKSVILLE     SUNNY     83  67  58 S3        30.01F

$$

MOZ041-047>049-056>058-063>065-088>090-097-310000-
...EASTERN AND SOUTHERN MISSOURI...

CITY           SKY/WX    TMP DP  RH WIND       PRES   REMARKS
ST. LOUIS INTL PTSUNNY   87  68  52 E3        29.99S HX  90
SPIRIT OF STL  MOSUNNY   85  73  67 CALM      29.97S HX  91
COLUMBIA       SUNNY     84  72  67 E6        29.99F
JEFFERSON CITY MOSUNNY   84  71  65 NE5       29.96F
ROLLA          MOSUNNY   83  68  60 SW7       29.99S
OSAGE BEACH    MOSUNNY   84  72  65 SE3       29.99S
SPRINGFIELD    MOSUNNY   84  69  60 SE5       29.98F
BRANSON        PTSUNNY   84  68  58 SE6       30.01F
JOPLIN         PTSUNNY   83  72  69 E10       29.96S
WEST PLAINS    MOSUNNY   83  69  62 SW3       30.02F

$$

IAZ060-094-KSZ022-034>040-054-083-096-NEZ052-066-093-310000-
...KANSAS...SOUTHEAST NEBRASKA AND IOWA...

CITY           SKY/WX    TMP DP  RH WIND       PRES   REMARKS
TOPEKA         PTSUNNY   82  70  66 E7        29.96F
MANHATTAN      SUNNY     80  68  66 E8        29.96F
EMPORIA        MOSUNNY   80  65  59 E8        29.97F
CHANUTE        PTSUNNY   82  70  66 E3        29.96F
WICHITA        MOSUNNY   83  63  50 S6        29.95F
OMAHA          MOSUNNY   76  66  71 S15       29.97F
LINCOLN        SUNNY     77  67  71 S12       29.98F
FALLS CITY     SUNNY     81  69  67 NE5       29.98F
LAMONI         MOSUNNY   79  68  69 SE5       30.01F
DES MOINES     MOSUNNY   78  67  68 S6        29.99F

$$




USA.gov is the U.S. government's official web portal to all federal, state and local government web resources and services.